Location: Brahman Valley
(40.6513°N, 111.8855°W)
Time: 02:15:23
(UTC+00:00)

Transit 2A - All Passes

Search period start: 12 May 2021 00:00
Search period end: 22 May 2021 00:00
Orbit: 602 x 957 km, 66.7° (Epoch: 11 May)

Date Brightness Start Highest point End Pass type
(mag) Time Alt. Az. Time Alt. Az. Time Alt. Az.
12 May - 08:50:08 10° SSW 08:54:43 66° ESE 08:59:04 10° NE visible
12 May - 10:35:38 10° W 10:38:14 15° NW 10:40:48 10° N visible
12 May - 17:36:03 10° NNW 17:40:31 48° ENE 17:45:22 10° SE daylight
12 May - 19:20:01 10° WNW 19:23:23 19° WSW 19:26:54 10° SSW daylight
13 May - 08:16:15 10° S 08:20:36 41° ESE 08:24:44 10° NE visible
13 May - 10:00:23 10° W 10:03:50 21° NW 10:07:13 10° N visible
13 May - 17:02:06 10° N 17:06:16 33° NE 17:10:44 10° ESE daylight
13 May - 18:45:15 10° NW 18:49:18 29° WSW 18:53:40 10° S daylight
14 May - 07:42:41 10° SSE 07:46:31 26° ESE 07:50:12 10° NE visible
14 May - 09:25:29 10° WSW 09:29:31 31° NW 09:33:25 10° N visible
14 May - 16:28:16 10° N 16:31:57 23° NE 16:35:51 10° ESE daylight
14 May - 18:10:46 10° NW 18:15:13 44° WSW 18:20:04 10° S daylight
15 May - 07:09:33 10° SSE 07:12:29 17° ESE 07:15:20 10° ENE visible
15 May - 08:50:52 10° SW 08:55:15 46° WNW 08:59:28 10° NNE visible
15 May - 15:54:37 10° N 15:57:34 16° NE 16:00:39 10° E daylight
15 May - 17:36:27 10° NW 17:41:05 68° WSW 17:46:10 10° SSE daylight
16 May - 06:37:47 10° ESE 06:38:30 10° ESE 06:39:12 10° E visible
16 May - 08:16:28 10° SW 08:21:03 73° WNW 08:25:24 10° NNE visible
16 May - 15:21:26 10° NNE 15:23:08 12° NE 15:24:51 10° ENE daylight
16 May - 17:02:15 10° NNW 17:06:55 80° ENE 17:12:02 10° SSE daylight
16 May - 18:48:00 10° W 18:49:32 11° WSW 18:51:06 10° SW daylight
17 May - 07:42:18 10° SSW 07:46:53 72° ESE 07:51:14 10° NNE visible
17 May - 09:28:06 10° WNW 09:30:27 14° NW 09:32:46 10° NNW visible
17 May - 16:28:10 10° NNW 16:32:43 53° ENE 16:37:40 10° SE daylight
17 May - 18:12:19 10° WNW 18:15:32 18° WSW 18:18:55 10° SSW daylight
18 May - 07:08:23 10° S 07:12:45 44° ESE 07:16:55 10° NE visible
18 May - 08:52:46 10° W 08:56:03 20° NW 08:59:17 10° N visible
18 May - 15:54:11 10° NNW 15:58:28 36° NE 16:03:06 10° ESE daylight
18 May - 17:37:28 10° NW 17:41:29 27° WSW 17:45:47 10° SSW daylight
19 May - 06:34:45 10° S 06:38:40 28° ESE 06:42:26 10° NE visible
19 May - 08:17:48 10° WSW 08:21:42 28° NW 08:25:30 10° N visible
19 May - 15:20:19 10° N 15:24:10 25° NE 15:28:15 10° ESE daylight
19 May - 17:02:57 10° NW 17:07:23 41° WSW 17:12:13 10° S daylight
20 May - 06:01:32 10° SSE 06:04:37 18° ESE 06:07:38 10° ENE visible
20 May - 07:43:08 10° SW 07:47:25 42° NW 07:51:35 10° NNE visible
20 May - 14:46:37 10° N 14:49:48 18° NE 14:53:08 10° E daylight
20 May - 16:28:36 10° NW 16:33:16 63° WSW 16:38:23 10° SSE daylight
21 May - 05:29:14 10° SE 05:30:38 11° ESE 05:32:01 10° E visible
21 May - 07:08:42 10° SW 07:13:12 67° WNW 07:17:32 10° NNE visible
21 May - 14:13:16 10° NNE 14:15:22 13° NE 14:17:33 10° ENE daylight
21 May - 15:54:23 10° NNW 15:59:06 86° ENE 16:04:17 10° SSE daylight
21 May - 17:40:43 10° W 17:41:42 11° WSW 17:42:40 10° WSW daylight
